Location: Cerezo de Arriba
(41.2389°N, 3.5585°W)
Time: 03:47:48
(UTC+00:00)

Cosmos 1400 Rocket - Pass Details

Date: 19 May 2025
Orbit: 484 x 519 km, 81.1° (Epoch: 23 June)

Event Time Altitude Azimuth Distance (km) Brightness Sun altitude
Exits shadow 21:05:08 - 202° (SSW) 2,242 5.7 -15.2°
Reaches altitude 10° 21:06:32 10° 207° (SSW) 1,678 5.1 -15.4°
Maximum altitude 21:10:05 48° 282° (WNW) 651 3.5 -15.9°
Drops below altitude 10° 21:13:39 10° 358° (N) 1,679 6.0 -16.3°
Sets 21:15:49 0° 4° (N) 2,562 6.9 -16.6°
